Location: Alulod
(14.2076°N, 120.8898°E)
Time: 02:40:19
(UTC+00:00)

USA 238 DEB - Pass Details

Date: 13 December 2025
Orbit: 883 x 1328 km, 63.4° (Epoch: 10 January)

Event Time Altitude Azimuth Distance (km) Brightness Sun altitude
Exits shadow 19:33:24 58° 174° (S) 1,520 4.4 -36.8°
Drops below altitude 10° 19:39:46 10° 161° (SSE) 3,343 6.6 -35.4°
Sets 19:42:35 0° 160° (SSE) 4,294 7.3 -34.7°
